sat.trackr.live / text

‹ back to catalog

STARLINK-35900

NORAD 66886 · 2025-283J

PAYLOAD ACTIVE UNKNOWN

§ Identity

Operator
Country
US
Launch date
2025-12-04
Launch site
AFWTR
Launch vehicle
Mass (kg)
RCS (m²)

Purposes: comms

External: N2YO · Heavens-Above · Gunter

§ Orbital elements

Epoch: 2026-09-20T07:27:14.280480Z

Period
93.85 min
Inclination
53.1582°
Eccentricity
0.0001155
Mean motion
15.34409907 rev/d
Perigee alt
461.9 km
Apogee alt
463.5 km
Semi-major
6,840.8 km
B*
4.7501e-4
RAAN
196.4778°
Arg perigee
85.3158°
Mean anomaly
274.7976°
Rev number
4,569

§ Raw data

STARLINK-359001 66886U 25283J   26263.31058195  .00015711  00000+0  47501-3 0  99992 66886  53.1582 196.4778 0001155  85.3158 274.7976 15.34409907 45692

JSON: /api/v1/satellites/66886 · /tle

For live sub-satellite position, see the globe view (requires WebGL).

§ Visibility from observer

Set your observer location to see the next 7 days of passes ≥ 10°. The values pass through the URL so the page stays shareable.

No JS? Fill the form by hand. The geolocation button needs JavaScript.